Location: Newark
(31.5350°N, 35.0986°E)
Time: 23:25:00
(UTC+00:00)

Vanguard 1 - Pass Details

Date: 27 September 2019
Orbit: 653 x 3830 km, 34.3° (Epoch: 14 October)

Event Time Altitude Azimuth Distance (km) Brightness Sun altitude
Rises 00:07:14 0° 266° (W) 7,555 - -42.4°
Reaches altitude 10° 00:12:03 10° 268° (W) 6,734 - -41.5°
Exits shadow 00:27:07 51° 277° (W) 4,409 12.8 -38.7°
Maximum altitude 00:36:07 82° 357° (N) 3,644 12.7 -37.0°
Drops below altitude 10° 00:54:31 10° 87° (E) 5,393 14.6 -33.4°
Sets 00:57:52 0° 88° (E) 6,068 15.1 -32.7°
